Location: Lynchburg College Observatory
(37.3822°N, 79.5391°W)
Time: 03:10:59
(UTC-05:00)

Tiangong 1 - Visible Passes

Search period start: 22 January 2018 00:00
Search period end: 01 February 2018 00:00
Orbit: 261 x 286 km, 42.8° (Epoch: 22 January)

Date Brightness Start Highest point End Pass type
(mag) Time Alt. Az. Time Alt. Az. Time Alt. Az.
22 Jan 1.3 17:56:29 10° NW 17:58:48 33° NNE 18:01:06 10° E visible
22 Jan 3.8 19:30:48 10° W 19:31:25 15° W 19:31:25 15° W visible
23 Jan 3.7 19:30:19 10° W 19:31:09 15° WSW 19:31:09 15° WSW visible
